Time,TemperatureF,DewpointF,PressureIn,WindDirection,WindDirectionDegrees,WindSpeedMPH,WindSpeedGustMPH,Humidity,HourlyPrecipIn,Conditions,Clouds,dailyrainin,SoftwareType,DateUTC
2013-05-11 00:01:00,59.4,34.4,26.95,ENE,62,0.0,0.0,39,0.00,RA,,0.00,WeatherDisplay:10.37,2013-05-11 04:01:00,
2013-05-11 00:02:00,59.2,34.9,26.95,ENE,62,0.0,0.0,40,0.00,RA,,0.00,WeatherDisplay:10.37,2013-05-11 04:02:00,
2013-05-11 00:03:00,59.2,34.9,26.95,ENE,62,0.0,0.0,40,0.00,RA,,0.00,WeatherDisplay:10.37,2013-05-11 04:03:00,
2013-05-11 00:05:00,59.2,34.9,26.95,ENE,62,0.0,0.0,40,0.00,RA,,0.00,WeatherDisplay:10.37,2013-05-11 04:05:00,
2013-05-11 00:10:00,58.8,34.5,26.95,ENE,62,0.0,0.0,40,0.00,CLR,,0.00,WeatherDisplay:10.37,2013-05-11 04:10:00,
2013-05-11 00:15:00,58.6,35.0,26.95,ENE,62,0.0,0.0,41,0.00,CLR,,0.00,WeatherDisplay:10.37,2013-05-11 04:15:00,
2013-05-11 00:20:00,58.5,34.8,26.95,ENE,62,0.0,0.0,41,0.00,CLR,,0.00,WeatherDisplay:10.37,2013-05-11 04:20:00,
2013-05-11 00:25:00,58.3,35.3,26.95,ENE,62,0.0,0.0,42,0.00,CLR,,0.00,WeatherDisplay:10.37,2013-05-11 04:25:00,
2013-05-11 00:30:00,58.1,35.7,26.95,ENE,62,0.0,0.0,43,0.00,CLR,,0.00,WeatherDisplay:10.37,2013-05-11 04:30:00,
2013-05-11 00:35:00,58.1,36.3,26.95,ENE,62,0.0,0.0,44,0.00,CLR,,0.00,WeatherDisplay:10.37,2013-05-11 04:35:00,
2013-05-11 00:40:00,57.9,36.1,26.95,ENE,62,0.0,0.0,44,0.00,CLR,,0.00,WeatherDisplay:10.37,2013-05-11 04:40:00,
2013-05-11 00:45:00,58.1,36.9,26.95,ENE,62,0.0,0.0,45,0.00,CLR,,0.00,WeatherDisplay:10.37,2013-05-11 04:45:00,
2013-05-11 00:50:00,58.1,36.9,26.95,ENE,62,0.0,0.0,45,0.00,CLR,,0.00,WeatherDisplay:10.37,2013-05-11 04:50:00,
2013-05-11 00:55:00,58.1,36.9,26.95,ENE,62,0.0,0.0,45,0.00,CLR,,0.00,WeatherDisplay:10.37,2013-05-11 04:55:00,
2013-05-11 01:00:00,58.1,36.9,26.95,ENE,62,0.0,0.0,45,0.00,CLR,,0.00,WeatherDisplay:10.37,2013-05-11 05:00:00,
2013-05-11 01:05:00,58.1,37.4,26.95,ENE,62,0.0,0.0,46,0.00,CLR,,0.00,WeatherDisplay:10.37,2013-05-11 05:05:00,
2013-05-11 01:10:00,58.1,37.4,26.95,ENE,62,0.0,0.0,46,0.00,CLR,,0.00,WeatherDisplay:10.37,2013-05-11 05:10:00,
2013-05-11 01:15:00,58.1,37.4,26.95,ENE,62,0.0,0.0,46,0.00,CLR,,0.00,WeatherDisplay:10.37,2013-05-11 05:15:00,
2013-05-11 01:20:00,58.1,37.4,26.95,ENE,62,0.0,0.0,46,0.00,CLR,,0.00,WeatherDisplay:10.37,2013-05-11 05:20:00,
2013-05-11 01:25:00,58.1,37.4,26.95,ENE,62,0.0,0.0,46,0.00,CLR,,0.00,WeatherDisplay:10.37,2013-05-11 05:25:00,
2013-05-11 01:30:00,57.9,37.2,26.95,ENE,62,0.0,0.0,46,0.00,CLR,,0.00,WeatherDisplay:10.37,2013-05-11 05:30:00,
2013-05-11 01:35:00,57.9,37.2,26.95,ENE,62,0.0,0.0,46,0.00,CLR,,0.00,WeatherDisplay:10.37,2013-05-11 05:35:00,
2013-05-11 01:40:00,57.9,37.2,26.95,ENE,62,0.0,0.0,46,0.00,CLR,,0.00,WeatherDisplay:10.37,2013-05-11 05:40:00,
2013-05-11 01:45:00,57.9,37.8,26.95,ENE,62,0.0,0.0,47,0.00,CLR,,0.00,WeatherDisplay:10.37,2013-05-11 05:45:00,
2013-05-11 01:50:00,57.9,37.8,26.95,ENE,62,0.0,0.0,47,0.00,CLR,,0.00,WeatherDisplay:10.37,2013-05-11 05:50:00,
2013-05-11 01:55:00,58.1,38.0,26.95,ENE,62,0.0,0.0,47,0.00,CLR,,0.00,WeatherDisplay:10.37,2013-05-11 05:55:00,
2013-05-11 02:00:00,58.1,38.0,26.95,ENE,62,0.0,0.0,47,0.00,CLR,,0.00,WeatherDisplay:10.37,2013-05-11 06:00:00,
2013-05-11 02:05:00,58.3,38.1,26.95,ENE,62,0.0,0.0,47,0.00,CLR,,0.00,WeatherDisplay:10.37,2013-05-11 06:05:00,
2013-05-11 02:10:00,58.3,38.1,26.95,ENE,62,0.0,0.0,47,0.00,CLR,,0.00,WeatherDisplay:10.37,2013-05-11 06:10:00,
2013-05-11 02:15:00,58.5,38.3,26.95,ENE,62,0.0,0.0,47,0.00,CLR,,0.00,WeatherDisplay:10.37,2013-05-11 06:15:00,
2013-05-11 02:20:00,58.6,38.5,26.95,ENE,62,0.0,0.0,47,0.00,CLR,,0.00,WeatherDisplay:10.37,2013-05-11 06:20:00,
2013-05-11 02:25:00,58.8,38.6,26.95,ENE,62,0.0,0.0,47,0.00,CLR,,0.00,WeatherDisplay:10.37,2013-05-11 06:25:00,
2013-05-11 02:30:00,58.8,39.2,26.95,ENE,62,0.0,0.0,48,0.00,CLR,,0.00,WeatherDisplay:10.37,2013-05-11 06:30:00,
2013-05-11 02:35:00,59.2,38.9,26.95,ENE,62,0.0,0.0,47,0.00,CLR,,0.00,WeatherDisplay:10.37,2013-05-11 06:35:00,
2013-05-11 02:40:00,59.2,39.5,26.95,ENE,62,0.0,0.0,48,0.00,CLR,,0.00,WeatherDisplay:10.37,2013-05-11 06:40:00,
2013-05-11 02:45:00,59.4,39.7,26.95,ENE,62,0.0,0.0,48,0.00,CLR,,0.00,WeatherDisplay:10.37,2013-05-11 06:45:00,
2013-05-11 02:50:00,59.4,39.1,26.95,ENE,62,0.0,0.0,47,0.00,CLR,,0.00,WeatherDisplay:10.37,2013-05-11 06:50:00,
2013-05-11 02:55:00,59.5,39.3,26.95,ENE,62,0.0,0.0,47,0.00,CLR,,0.00,WeatherDisplay:10.37,2013-05-11 06:55:00,
2013-05-11 03:00:00,59.5,39.8,26.95,ENE,62,0.0,0.0,48,0.00,CLR,,0.00,WeatherDisplay:10.37,2013-05-11 07:00:00,
2013-05-11 03:05:00,59.7,40.0,26.95,ENE,62,0.0,0.0,48,0.00,CLR,,0.00,WeatherDisplay:10.37,2013-05-11 07:05:00,
2013-05-11 03:10:00,59.7,39.4,26.95,ENE,62,0.0,0.0,47,0.00,CLR,,0.00,WeatherDisplay:10.37,2013-05-11 07:10:00,
2013-05-11 03:15:00,59.7,39.4,26.95,ENE,62,0.0,0.0,47,0.00,CLR,,0.00,WeatherDisplay:10.37,2013-05-11 07:15:00,
2013-05-11 03:20:00,59.7,40.0,26.95,ENE,62,0.0,0.0,48,0.00,CLR,,0.00,WeatherDisplay:10.37,2013-05-11 07:20:00,
2013-05-11 03:25:00,59.9,39.6,26.95,ENE,62,0.0,0.0,47,0.00,CLR,,0.00,WeatherDisplay:10.37,2013-05-11 07:25:00,
2013-05-11 03:30:00,59.9,39.6,26.95,ENE,62,0.0,0.0,47,0.00,CLR,,0.00,WeatherDisplay:10.37,2013-05-11 07:30:00,
2013-05-11 03:35:00,59.9,39.6,26.95,ENE,62,0.0,0.0,47,0.00,CLR,,0.00,WeatherDisplay:10.37,2013-05-11 07:35:00,
2013-05-11 03:40:00,59.9,39.6,26.95,ENE,62,0.0,0.0,47,0.00,CLR,,0.00,WeatherDisplay:10.37,2013-05-11 07:40:00,
2013-05-11 03:45:00,59.7,39.4,26.95,ENE,62,0.0,0.0,47,0.00,CLR,,0.00,WeatherDisplay:10.37,2013-05-11 07:45:00,
2013-05-11 03:50:00,59.7,39.4,26.95,ENE,62,0.0,0.0,47,0.00,CLR,,0.00,WeatherDisplay:10.37,2013-05-11 07:50:00,
2013-05-11 03:55:00,59.5,39.3,26.95,ENE,62,0.0,0.0,47,0.00,CLR,,0.00,WeatherDisplay:10.37,2013-05-11 07:55:00,
2013-05-11 04:00:00,59.2,38.9,26.95,ENE,62,0.0,0.0,47,0.00,CLR,,0.00,WeatherDisplay:10.37,2013-05-11 08:00:00,
2013-05-11 04:05:00,59.4,38.0,26.95,ENE,62,0.0,0.0,45,0.00,CLR,,0.00,WeatherDisplay:10.37,2013-05-11 08:05:00,
2013-05-11 04:10:00,59.4,38.0,26.95,ENE,62,0.0,0.0,45,0.00,CLR,,0.00,WeatherDisplay:10.37,2013-05-11 08:10:00,
2013-05-11 04:15:00,59.4,37.4,26.95,ENE,62,0.0,0.0,44,0.00,CLR,,0.00,WeatherDisplay:10.37,2013-05-11 08:15:00,
2013-05-11 04:20:00,59.2,37.3,26.95,ENE,62,2.3,0.0,44,0.00,CLR,,0.00,WeatherDisplay:10.37,2013-05-11 08:20:00,
2013-05-11 04:25:00,59.0,37.1,26.95,ENE,62,0.0,0.0,44,0.00,CLR,,0.00,WeatherDisplay:10.37,2013-05-11 08:25:00,
2013-05-11 04:30:00,58.8,37.5,26.95,ENE,62,0.0,0.0,45,0.00,CLR,,0.00,WeatherDisplay:10.37,2013-05-11 08:30:00,
2013-05-11 04:35:00,58.8,37.5,26.95,ENE,62,0.0,0.0,45,0.00,CLR,,0.00,WeatherDisplay:10.37,2013-05-11 08:35:00,
2013-05-11 04:40:00,58.8,37.5,26.95,ENE,62,0.0,0.0,45,0.00,CLR,,0.00,WeatherDisplay:10.37,2013-05-11 08:40:00,
2013-05-11 04:45:00,58.8,37.5,26.95,ENE,62,0.0,0.0,45,0.00,CLR,,0.00,WeatherDisplay:10.37,2013-05-11 08:45:00,
2013-05-11 04:50:00,58.8,37.5,26.95,ENE,62,2.3,0.0,45,0.00,CLR,,0.00,WeatherDisplay:10.37,2013-05-11 08:50:00,
2013-05-11 04:55:00,58.8,37.5,26.95,ENE,62,0.0,0.0,45,0.00,CLR,,0.00,WeatherDisplay:10.37,2013-05-11 08:55:00,
2013-05-11 05:00:00,58.8,37.5,26.95,ENE,62,0.0,0.0,45,0.00,CLR,,0.00,WeatherDisplay:10.37,2013-05-11 09:00:00,
2013-05-11 05:05:00,59.0,37.1,26.95,ENE,62,0.0,0.0,44,0.00,CLR,,0.00,WeatherDisplay:10.37,2013-05-11 09:05:00,
2013-05-11 05:10:00,59.2,37.3,26.95,ENE,62,0.0,0.0,44,0.00,CLR,,0.00,WeatherDisplay:10.37,2013-05-11 09:10:00,
2013-05-11 05:15:00,59.2,36.7,26.95,ENE,62,0.0,0.0,43,0.00,CLR,,0.00,WeatherDisplay:10.37,2013-05-11 09:15:00,
2013-05-11 05:20:00,59.0,37.1,26.95,ENE,62,0.0,0.0,44,0.00,CLR,,0.00,WeatherDisplay:10.37,2013-05-11 09:20:00,
2013-05-11 05:25:00,59.0,37.1,26.95,ENE,62,0.0,0.0,44,0.00,CLR,,0.00,WeatherDisplay:10.37,2013-05-11 09:25:00,
2013-05-11 05:30:00,59.0,37.1,26.95,ENE,62,0.0,0.0,44,0.00,CLR,,0.00,WeatherDisplay:10.37,2013-05-11 09:30:00,
2013-05-11 05:35:00,59.2,36.7,26.95,ENE,62,0.0,0.0,43,0.00,CLR,,0.00,WeatherDisplay:10.37,2013-05-11 09:35:00,
2013-05-11 05:40:00,59.2,36.1,26.95,ENE,62,0.0,0.0,42,0.00,CLR,,0.00,WeatherDisplay:10.37,2013-05-11 09:40:00,
2013-05-11 05:45:00,59.4,35.6,26.95,ENE,62,0.0,0.0,41,0.00,CLR,,0.00,WeatherDisplay:10.37,2013-05-11 09:45:00,
2013-05-11 05:50:00,59.4,34.4,26.95,SE,134,3.5,0.0,39,0.00,CLR,,0.00,WeatherDisplay:10.37,2013-05-11 09:50:00,
2013-05-11 05:55:00,59.7,34.0,26.95,ENE,73,0.0,0.0,38,0.00,CLR,,0.00,WeatherDisplay:10.37,2013-05-11 09:55:00,
2013-05-11 06:00:00,59.7,34.0,26.95,ENE,73,0.0,0.0,38,0.00,CLR,,0.00,WeatherDisplay:10.37,2013-05-11 10:00:00,
2013-05-11 06:05:00,59.4,33.7,26.95,ENE,72,0.0,0.0,38,0.00,CLR,,0.00,WeatherDisplay:10.37,2013-05-11 10:05:00,
2013-05-11 06:10:00,59.0,35.9,26.95,ESE,104,2.3,2.3,42,0.00,CLR,,0.00,WeatherDisplay:10.37,2013-05-11 10:10:00,
2013-05-11 06:15:00,58.6,36.8,26.95,ESE,104,0.0,0.0,44,0.00,CLR,,0.00,WeatherDisplay:10.37,2013-05-11 10:15:00,
2013-05-11 06:20:00,58.6,37.3,26.95,ESE,104,0.0,0.0,45,0.00,CLR,,0.00,WeatherDisplay:10.37,2013-05-11 10:20:00,
2013-05-11 06:25:00,58.6,37.3,26.95,ESE,104,0.0,0.0,45,0.00,CLR,,0.00,WeatherDisplay:10.37,2013-05-11 10:25:00,
2013-05-11 06:30:00,58.8,38.1,26.95,ESE,104,0.0,0.0,46,0.00,CLR,,0.00,WeatherDisplay:10.37,2013-05-11 10:30:00,
2013-05-11 06:35:00,58.8,38.1,26.95,South,190,0.0,0.0,46,0.00,CLR,,0.00,WeatherDisplay:10.37,2013-05-11 10:35:00,
2013-05-11 06:40:00,59.0,38.2,26.95,South,190,0.0,0.0,46,0.00,CLR,,0.00,WeatherDisplay:10.37,2013-05-11 10:40:00,
2013-05-11 06:45:00,59.0,38.8,26.95,South,190,0.0,0.0,47,0.04,RA,,0.04,WeatherDisplay:10.37,2013-05-11 10:45:00,
2013-05-11 06:50:00,59.4,39.1,26.95,South,190,0.0,0.0,47,0.04,RA,,0.04,WeatherDisplay:10.37,2013-05-11 10:50:00,
2013-05-11 06:55:00,59.5,39.8,26.95,South,190,0.0,0.0,48,0.04,,,0.04,WeatherDisplay:10.37,2013-05-11 10:55:00,
2013-05-11 07:00:00,59.5,39.8,26.95,South,190,0.0,0.0,48,0.04,CLR,,0.04,WeatherDisplay:10.37,2013-05-11 11:00:00,
2013-05-11 07:05:00,59.7,40.0,26.95,South,190,0.0,0.0,48,0.04,CLR,,0.04,WeatherDisplay:10.37,2013-05-11 11:05:00,
2013-05-11 07:10:00,59.9,40.7,26.95,South,190,0.0,0.0,49,0.04,CLR,,0.04,WeatherDisplay:10.37,2013-05-11 11:10:00,
2013-05-11 07:15:00,59.9,40.7,26.95,SW,216,0.0,0.0,49,0.04,CLR,,0.04,WeatherDisplay:10.37,2013-05-11 11:15:00,
2013-05-11 07:20:00,59.9,40.7,26.95,SSE,165,0.0,0.0,49,0.04,CLR,,0.04,WeatherDisplay:10.37,2013-05-11 11:20:00,
2013-05-11 07:25:00,60.1,41.4,26.95,SE,129,2.3,0.0,50,0.04,CLR,,0.04,WeatherDisplay:10.37,2013-05-11 11:25:00,
2013-05-11 07:30:00,60.1,41.4,26.95,ESE,121,2.3,0.0,50,0.04,CLR,,0.04,WeatherDisplay:10.37,2013-05-11 11:30:00,
2013-05-11 07:35:00,60.1,41.4,26.95,SSW,202,3.5,3.5,50,0.04,CLR,,0.04,WeatherDisplay:10.37,2013-05-11 11:35:00,
2013-05-11 07:40:00,60.3,42.0,26.95,SSW,202,0.0,0.0,51,0.04,CLR,,0.04,WeatherDisplay:10.37,2013-05-11 11:40:00,
2013-05-11 07:45:00,60.3,42.0,26.95,SSW,202,0.0,0.0,51,0.00,CLR,,0.04,WeatherDisplay:10.37,2013-05-11 11:45:00,
2013-05-11 07:50:00,60.4,42.2,26.95,SSW,202,2.3,0.0,51,0.00,CLR,,0.04,WeatherDisplay:10.37,2013-05-11 11:50:00,
2013-05-11 07:55:00,60.4,42.2,26.95,East,98,2.3,0.0,51,0.00,CLR,,0.04,WeatherDisplay:10.37,2013-05-11 11:55:00,
2013-05-11 08:00:00,60.6,42.4,26.95,SSE,153,0.0,0.0,51,0.00,CLR,,0.04,WeatherDisplay:10.37,2013-05-11 12:00:00,
2013-05-11 08:05:00,60.8,42.5,26.95,ESE,111,3.5,0.0,51,0.00,CLR,,0.04,WeatherDisplay:10.37,2013-05-11 12:05:00,
2013-05-11 08:10:00,61.2,42.9,26.95,SW,216,0.0,0.0,51,0.00,CLR,,0.04,WeatherDisplay:10.37,2013-05-11 12:10:00,
2013-05-11 08:15:00,61.2,42.4,26.95,SE,127,3.5,0.0,50,0.00,CLR,,0.04,WeatherDisplay:10.37,2013-05-11 12:15:00,
2013-05-11 08:20:00,61.3,42.5,26.95,ENE,71,3.5,3.5,50,0.00,CLR,,0.04,WeatherDisplay:10.37,2013-05-11 12:20:00,
2013-05-11 08:25:00,61.0,41.7,26.95,SSW,206,3.5,3.5,49,0.00,CLR,,0.04,WeatherDisplay:10.37,2013-05-11 12:25:00,
2013-05-11 08:30:00,61.2,41.8,26.95,SSW,206,2.3,0.0,49,0.00,CLR,,0.04,WeatherDisplay:10.37,2013-05-11 12:30:00,
2013-05-11 08:35:00,61.5,42.2,26.95,East,96,3.1,0.0,49,0.00,CLR,,0.04,WeatherDisplay:10.37,2013-05-11 12:35:00,
2013-05-11 08:40:00,61.7,42.3,26.95,West,278,2.3,0.0,49,0.00,CLR,,0.04,WeatherDisplay:10.37,2013-05-11 12:40:00,
2013-05-11 08:45:00,61.9,42.5,26.95,West,278,0.0,0.0,49,0.00,CLR,,0.04,WeatherDisplay:10.37,2013-05-11 12:45:00,
2013-05-11 08:50:00,62.2,42.8,26.95,West,278,2.3,0.0,49,0.00,CLR,,0.04,WeatherDisplay:10.37,2013-05-11 12:50:00,
2013-05-11 08:55:00,62.2,42.3,26.95,West,278,0.0,0.0,48,0.00,CLR,,0.04,WeatherDisplay:10.37,2013-05-11 12:55:00,
2013-05-11 09:00:00,62.4,42.5,26.95,West,278,0.0,0.0,48,0.00,CLR,,0.04,WeatherDisplay:10.37,2013-05-11 13:00:00,
2013-05-11 09:05:00,62.2,41.7,26.95,South,185,3.5,3.5,47,0.00,CLR,,0.04,WeatherDisplay:10.37,2013-05-11 13:05:00,
2013-05-11 09:10:00,62.6,41.5,26.95,SSE,154,0.0,0.0,46,0.00,CLR,,0.04,WeatherDisplay:10.37,2013-05-11 13:10:00,
2013-05-11 09:15:00,63.1,42.0,26.95,South,190,2.3,0.0,46,0.00,CLR,,0.04,WeatherDisplay:10.37,2013-05-11 13:15:00,
2013-05-11 09:20:00,63.9,42.1,26.95,West,278,0.0,0.0,45,0.00,CLR,,0.04,WeatherDisplay:10.37,2013-05-11 13:20:00,
2013-05-11 09:25:00,65.3,42.2,26.95,SSE,155,2.3,0.0,43,0.00,CLR,,0.04,WeatherDisplay:10.37,2013-05-11 13:25:00,
2013-05-11 09:30:00,65.3,37.6,26.95,SSW,208,2.3,0.0,36,0.00,CLR,,0.04,WeatherDisplay:10.37,2013-05-11 13:30:00,
2013-05-11 09:35:00,64.4,35.4,26.95,South,169,4.6,4.6,34,0.00,CLR,,0.04,WeatherDisplay:10.37,2013-05-11 13:35:00,
2013-05-11 09:40:00,64.6,35.6,26.95,SSW,192,3.5,3.5,34,0.00,CLR,,0.04,WeatherDisplay:10.37,2013-05-11 13:40:00,
2013-05-11 09:45:00,64.6,35.6,26.95,ESE,117,0.0,0.0,34,0.00,CLR,,0.04,WeatherDisplay:10.37,2013-05-11 13:45:00,
2013-05-11 09:50:00,65.5,36.4,26.95,West,264,2.3,0.0,34,0.00,CLR,,0.04,WeatherDisplay:10.37,2013-05-11 13:50:00,
2013-05-11 09:55:00,66.2,36.2,26.95,West,264,2.3,0.0,33,0.00,CLR,,0.04,WeatherDisplay:10.37,2013-05-11 13:55:00,
2013-05-11 10:00:00,66.4,34.0,26.95,NNW,346,3.5,3.5,30,0.00,CLR,,0.04,WeatherDisplay:10.37,2013-05-11 14:00:00,
2013-05-11 10:05:00,66.2,33.8,26.95,SSW,207,3.5,3.5,30,0.00,CLR,,0.04,WeatherDisplay:10.37,2013-05-11 14:05:00,
2013-05-11 10:10:00,66.2,35.4,26.95,SSW,207,3.5,0.0,32,0.00,CLR,,0.04,WeatherDisplay:10.37,2013-05-11 14:10:00,
2013-05-11 10:15:00,66.4,34.0,26.95,SSW,205,3.5,3.5,30,0.00,CLR,,0.04,WeatherDisplay:10.37,2013-05-11 14:15:00,
2013-05-11 10:20:00,66.7,34.3,26.95,WSW,241,2.3,0.0,30,0.00,CLR,,0.04,WeatherDisplay:10.37,2013-05-11 14:20:00,
2013-05-11 10:25:00,67.6,35.1,26.95,South,190,3.5,3.5,30,0.00,CLR,,0.04,WeatherDisplay:10.37,2013-05-11 14:25:00,
2013-05-11 10:30:00,67.6,32.4,26.95,WSW,244,3.5,0.0,27,0.00,CLR,,0.04,WeatherDisplay:10.37,2013-05-11 14:30:00,
2013-05-11 10:35:00,67.1,32.0,26.95,SW,218,5.8,5.8,27,0.00,CLR,,0.04,WeatherDisplay:10.37,2013-05-11 14:35:00,
2013-05-11 10:40:00,67.1,32.0,26.95,WNW,299,4.6,4.6,27,0.00,CLR,,0.04,WeatherDisplay:10.37,2013-05-11 14:40:00,
2013-05-11 10:45:00,66.9,31.8,26.95,SW,233,4.0,4.0,27,0.00,CLR,,0.04,WeatherDisplay:10.37,2013-05-11 14:45:00,
2013-05-11 10:50:00,67.3,32.1,26.95,North,353,3.5,3.5,27,0.00,CLR,,0.04,WeatherDisplay:10.37,2013-05-11 14:50:00,
2013-05-11 10:55:00,67.6,32.4,26.95,NW,322,5.8,5.8,27,0.00,CLR,,0.04,WeatherDisplay:10.37,2013-05-11 14:55:00,
2013-05-11 11:00:00,67.8,32.6,26.95,ENE,62,3.5,0.0,27,0.00,CLR,,0.04,WeatherDisplay:10.37,2013-05-11 15:00:00,
2013-05-11 11:05:00,67.8,32.6,26.95,ENE,76,3.5,0.0,27,0.00,CLR,,0.04,WeatherDisplay:10.37,2013-05-11 15:05:00,
2013-05-11 11:10:00,67.8,32.6,26.95,South,177,5.8,5.8,27,0.00,CLR,,0.04,WeatherDisplay:10.37,2013-05-11 15:10:00,
2013-05-11 11:15:00,67.5,32.3,26.95,SE,128,5.8,5.8,27,0.00,CLR,,0.04,WeatherDisplay:10.37,2013-05-11 15:15:00,
2013-05-11 11:20:00,66.9,31.8,26.95,NW,305,5.8,5.8,27,0.00,CLR,,0.04,WeatherDisplay:10.37,2013-05-11 15:20:00,
2013-05-11 11:25:00,67.3,32.1,26.95,NE,56,3.5,0.0,27,0.00,CLR,,0.04,WeatherDisplay:10.37,2013-05-11 15:25:00,
2013-05-11 11:30:00,67.8,32.6,26.95,WSW,255,3.5,3.5,27,0.00,CLR,,0.04,WeatherDisplay:10.37,2013-05-11 15:30:00,
2013-05-11 11:35:00,68.2,32.9,26.95,SSW,193,3.5,0.0,27,0.00,CLR,,0.04,WeatherDisplay:10.37,2013-05-11 15:35:00,
2013-05-11 11:40:00,67.8,32.6,26.95,WNW,285,9.2,9.2,27,0.00,CLR,,0.04,WeatherDisplay:10.37,2013-05-11 15:40:00,
2013-05-11 11:46:00,68.2,32.9,26.95,SW,226,10.4,10.4,27,0.00,CLR,,0.04,WeatherDisplay:10.37,2013-05-11 15:46:00,
2013-05-11 11:51:00,68.9,33.5,26.95,West,280,8.1,8.1,27,0.00,CLR,,0.04,WeatherDisplay:10.37,2013-05-11 15:51:00,
2013-05-11 11:56:00,68.2,31.0,26.95,NNW,334,8.1,8.1,25,0.00,CLR,,0.04,WeatherDisplay:10.37,2013-05-11 15:56:00,
2013-05-11 12:01:00,69.1,33.7,26.95,NNE,20,3.5,3.5,27,0.00,CLR,,0.04,WeatherDisplay:10.37,2013-05-11 16:01:00,
2013-05-11 12:06:00,69.3,33.8,26.95,SW,220,4.6,4.6,27,0.00,CLR,,0.04,WeatherDisplay:10.37,2013-05-11 16:06:00,
2013-05-11 12:11:00,69.3,31.9,26.95,WNW,283,4.6,4.6,25,0.00,CLR,,0.04,WeatherDisplay:10.37,2013-05-11 16:11:00,
2013-05-11 12:16:00,68.9,33.5,26.95,SW,231,3.5,3.5,27,0.00,CLR,,0.04,WeatherDisplay:10.37,2013-05-11 16:16:00,
2013-05-11 12:21:00,68.2,32.9,26.95,WSW,250,5.4,5.4,27,0.00,CLR,,0.04,WeatherDisplay:10.37,2013-05-11 16:21:00,
2013-05-11 12:26:00,67.5,32.3,26.95,West,268,5.8,5.8,27,0.00,CLR,,0.04,WeatherDisplay:10.37,2013-05-11 16:26:00,
2013-05-11 12:31:00,67.3,32.1,26.95,NW,320,2.3,0.0,27,0.00,CLR,,0.04,WeatherDisplay:10.37,2013-05-11 16:31:00,
2013-05-11 12:36:00,67.6,32.4,26.95,ENE,70,2.3,0.0,27,0.00,CLR,,0.04,WeatherDisplay:10.37,2013-05-11 16:36:00,
2013-05-11 12:41:00,67.8,32.6,26.95,SW,221,2.3,0.0,27,0.00,CLR,,0.04,WeatherDisplay:10.37,2013-05-11 16:41:00,
2013-05-11 12:46:00,68.2,32.9,26.95,ENE,70,3.5,0.0,27,0.00,CLR,,0.04,WeatherDisplay:10.37,2013-05-11 16:46:00,
2013-05-11 12:51:00,68.2,32.9,26.95,WSW,238,8.1,8.1,27,0.00,CLR,,0.04,WeatherDisplay:10.37,2013-05-11 16:51:00,
2013-05-11 12:56:00,68.5,33.2,26.95,NNW,344,3.5,3.5,27,0.00,CLR,,0.04,WeatherDisplay:10.37,2013-05-11 16:56:00,
2013-05-11 13:01:00,69.4,34.0,26.95,South,174,5.8,5.8,27,0.00,CLR,,0.04,WeatherDisplay:10.37,2013-05-11 17:01:00,
2013-05-11 13:06:00,69.6,34.1,26.95,SE,129,6.9,6.9,27,0.00,CLR,,0.04,WeatherDisplay:10.37,2013-05-11 17:06:00,
2013-05-11 13:11:00,69.3,33.8,26.95,SW,234,3.5,3.5,27,0.00,CLR,,0.04,WeatherDisplay:10.37,2013-05-11 17:11:00,
2013-05-11 13:16:00,69.1,33.7,26.95,NNE,13,5.8,5.8,27,0.00,CLR,,0.04,WeatherDisplay:10.37,2013-05-11 17:16:00,
2013-05-11 13:21:00,68.5,33.2,26.95,SSW,198,5.8,5.8,27,0.00,CLR,,0.04,WeatherDisplay:10.37,2013-05-11 17:21:00,
2013-05-11 13:26:00,68.4,33.1,26.95,ESE,104,5.8,5.8,27,0.00,CLR,,0.04,WeatherDisplay:10.37,2013-05-11 17:26:00,
2013-05-11 13:31:00,68.9,33.5,26.95,SW,225,5.8,5.8,27,0.00,CLR,,0.04,WeatherDisplay:10.37,2013-05-11 17:31:00,
2013-05-11 13:36:00,69.4,34.0,26.95,West,272,3.5,0.0,27,0.00,CLR,,0.04,WeatherDisplay:10.37,2013-05-11 17:36:00,
2013-05-11 13:41:00,69.6,34.1,26.95,NNW,333,5.8,5.8,27,0.00,CLR,,0.04,WeatherDisplay:10.37,2013-05-11 17:41:00,
2013-05-11 13:46:00,69.8,34.3,26.95,SSW,210,0.0,0.0,27,0.00,CLR,,0.04,WeatherDisplay:10.37,2013-05-11 17:46:00,
2013-05-11 13:51:00,69.8,34.3,26.95,SW,223,2.7,0.0,27,0.00,CLR,,0.04,WeatherDisplay:10.37,2013-05-11 17:51:00,
2013-05-11 13:56:00,69.6,34.1,26.95,NNW,341,4.6,4.6,27,0.00,CLR,,0.04,WeatherDisplay:10.37,2013-05-11 17:56:00,
2013-05-11 14:01:00,69.6,34.1,26.95,SSW,198,3.5,0.0,27,0.00,CLR,,0.04,WeatherDisplay:10.37,2013-05-11 18:01:00,
2013-05-11 14:06:00,69.4,34.0,26.95,SSW,211,3.5,3.5,27,0.00,CLR,,0.04,WeatherDisplay:10.37,2013-05-11 18:06:00,
2013-05-11 14:11:00,69.4,34.0,26.95,SSE,163,3.5,0.0,27,0.00,CLR,,0.04,WeatherDisplay:10.37,2013-05-11 18:11:00,
2013-05-11 14:16:00,69.6,34.1,26.95,SW,232,3.5,3.5,27,0.00,CLR,,0.04,WeatherDisplay:10.37,2013-05-11 18:16:00,
2013-05-11 14:21:00,70.0,34.4,26.95,NW,307,5.8,5.8,27,0.00,CLR,,0.04,WeatherDisplay:10.37,2013-05-11 18:21:00,
2013-05-11 14:26:00,70.2,34.6,26.95,South,182,5.8,0.0,27,0.00,CLR,,0.04,WeatherDisplay:10.37,2013-05-11 18:26:00,
2013-05-11 14:31:00,70.2,31.7,26.95,NNE,17,2.3,0.0,24,0.00,CLR,,0.04,WeatherDisplay:10.37,2013-05-11 18:31:00,
2013-05-11 14:36:00,70.0,34.4,26.95,SW,232,5.8,5.8,27,0.00,CLR,,0.04,WeatherDisplay:10.37,2013-05-11 18:36:00,
2013-05-11 14:41:00,70.0,31.5,26.95,NE,51,5.8,5.8,24,0.00,CLR,,0.04,WeatherDisplay:10.37,2013-05-11 18:41:00,
2013-05-11 14:46:00,69.8,31.4,26.95,South,191,3.5,3.5,24,0.00,CLR,,0.04,WeatherDisplay:10.37,2013-05-11 18:46:00,
2013-05-11 14:51:00,69.8,34.3,26.95,SE,133,3.5,3.5,27,0.00,CLR,,0.04,WeatherDisplay:10.37,2013-05-11 18:51:00,
2013-05-11 14:56:00,69.6,34.1,26.95,SSE,159,5.8,5.8,27,0.00,CLR,,0.04,WeatherDisplay:10.37,2013-05-11 18:56:00,
2013-05-11 15:01:00,69.1,31.8,26.95,SSW,194,5.8,5.8,25,0.00,CLR,,0.04,WeatherDisplay:10.37,2013-05-11 19:01:00,
2013-05-11 15:06:00,69.1,33.7,26.95,NE,46,3.5,3.5,27,0.00,CLR,,0.04,WeatherDisplay:10.37,2013-05-11 19:06:00,
2013-05-11 15:11:00,68.9,33.5,26.95,SW,217,5.8,5.8,27,0.00,CLR,,0.04,WeatherDisplay:10.37,2013-05-11 19:11:00,
2013-05-11 15:16:00,68.9,33.5,26.95,SSE,151,3.5,3.5,27,0.00,CLR,,0.04,WeatherDisplay:10.37,2013-05-11 19:16:00,
2013-05-11 15:21:00,68.7,33.4,26.95,NNE,19,3.5,0.0,27,0.00,CLR,,0.04,WeatherDisplay:10.37,2013-05-11 19:21:00,
2013-05-11 15:26:00,68.9,31.6,26.95,SE,146,3.5,3.5,25,0.00,CLR,,0.04,WeatherDisplay:10.37,2013-05-11 19:26:00,
2013-05-11 15:31:00,69.1,31.8,26.95,NW,305,3.5,0.0,25,0.00,CLR,,0.04,WeatherDisplay:10.37,2013-05-11 19:31:00,
2013-05-11 15:36:00,69.1,31.8,26.95,WSW,241,5.8,5.8,25,0.00,CLR,,0.04,WeatherDisplay:10.37,2013-05-11 19:36:00,
2013-05-11 15:41:00,69.1,31.8,26.95,South,176,4.9,4.9,25,0.00,CLR,,0.04,WeatherDisplay:10.37,2013-05-11 19:41:00,
2013-05-11 15:46:00,68.9,31.6,26.95,WSW,244,5.8,5.8,25,0.00,CLR,,0.04,WeatherDisplay:10.37,2013-05-11 19:46:00,
2013-05-11 15:51:00,68.4,33.1,26.95,SSW,194,3.5,4.0,27,0.00,CLR,,0.04,WeatherDisplay:10.37,2013-05-11 19:51:00,
2013-05-11 15:56:00,68.2,32.9,26.95,NE,41,3.5,0.0,27,0.00,CLR,,0.04,WeatherDisplay:10.37,2013-05-11 19:56:00,
2013-05-11 16:01:00,68.0,32.7,26.95,South,169,3.5,0.0,27,0.00,CLR,,0.04,WeatherDisplay:10.37,2013-05-11 20:01:00,
2013-05-11 16:06:00,67.8,32.6,26.95,ESE,113,3.5,0.0,27,0.00,CLR,,0.04,WeatherDisplay:10.37,2013-05-11 20:06:00,
2013-05-11 16:11:00,67.6,32.4,26.95,SSE,153,5.8,5.8,27,0.00,CLR,,0.04,WeatherDisplay:10.37,2013-05-11 20:11:00,
2013-05-11 16:16:00,67.5,32.3,26.95,SW,233,3.5,3.5,27,0.00,CLR,,0.04,WeatherDisplay:10.37,2013-05-11 20:16:00,
2013-05-11 16:21:00,67.3,32.1,26.95,NW,312,5.8,5.8,27,0.00,CLR,,0.04,WeatherDisplay:10.37,2013-05-11 20:21:00,
2013-05-11 16:26:00,68.0,32.7,26.95,SW,229,3.5,3.5,27,0.00,CLR,,0.04,WeatherDisplay:10.37,2013-05-11 20:26:00,
2013-05-11 16:31:00,68.4,31.1,26.95,SW,234,3.5,3.5,25,0.00,CLR,,0.04,WeatherDisplay:10.37,2013-05-11 20:31:00,
2013-05-11 16:36:00,68.0,30.8,26.95,SW,214,5.8,5.8,25,0.00,CLR,,0.04,WeatherDisplay:10.37,2013-05-11 20:36:00,
2013-05-11 16:41:00,68.0,32.7,26.95,West,274,3.5,0.0,27,0.00,CLR,,0.04,WeatherDisplay:10.37,2013-05-11 20:41:00,
2013-05-11 16:46:00,67.8,32.6,26.95,SSW,194,4.6,0.0,27,0.00,CLR,,0.04,WeatherDisplay:10.37,2013-05-11 20:46:00,
2013-05-11 16:51:00,67.8,32.6,26.95,SW,218,3.1,0.0,27,0.00,CLR,,0.04,WeatherDisplay:10.37,2013-05-11 20:51:00,
2013-05-11 16:56:00,67.8,32.6,26.95,NE,44,0.0,0.0,27,0.00,CLR,,0.04,WeatherDisplay:10.37,2013-05-11 20:56:00,
2013-05-11 17:01:00,67.5,32.3,26.95,East,97,2.3,0.0,27,0.00,CLR,,0.04,WeatherDisplay:10.37,2013-05-11 21:01:00,
2013-05-11 17:06:00,67.3,32.1,26.95,WSW,248,0.0,0.0,27,0.00,CLR,,0.04,WeatherDisplay:10.37,2013-05-11 21:06:00,
2013-05-11 17:11:00,67.1,32.0,26.95,SSE,165,2.3,0.0,27,0.00,CLR,,0.04,WeatherDisplay:10.37,2013-05-11 21:11:00,
2013-05-11 17:16:00,67.1,32.0,26.95,SSW,207,0.0,0.0,27,0.00,CLR,,0.04,WeatherDisplay:10.37,2013-05-11 21:16:00,
2013-05-11 17:21:00,67.1,32.0,26.95,SE,136,0.0,0.0,27,0.00,CLR,,0.04,WeatherDisplay:10.37,2013-05-11 21:21:00,
2013-05-11 17:26:00,66.9,31.8,26.95,WSW,256,3.5,0.0,27,0.00,CLR,,0.04,WeatherDisplay:10.37,2013-05-11 21:26:00,
2013-05-11 17:31:00,66.9,31.8,26.95,SW,231,5.8,0.0,27,0.00,CLR,,0.04,WeatherDisplay:10.37,2013-05-11 21:31:00,
2013-05-11 17:36:00,66.7,31.7,26.95,North,357,2.3,0.0,27,0.00,CLR,,0.04,WeatherDisplay:10.37,2013-05-11 21:36:00,
2013-05-11 17:41:00,66.4,31.4,26.95,South,175,3.5,3.5,27,0.00,CLR,,0.04,WeatherDisplay:10.37,2013-05-11 21:41:00,
2013-05-11 17:46:00,65.5,33.2,26.95,SSW,201,2.3,0.0,30,0.00,CLR,,0.04,WeatherDisplay:10.37,2013-05-11 21:46:00,
2013-05-11 17:51:00,64.8,36.5,26.95,NNW,346,3.5,3.5,35,0.00,CLR,,0.04,WeatherDisplay:10.37,2013-05-11 21:51:00,
2013-05-11 17:56:00,64.2,36.7,26.95,NE,46,0.0,0.0,36,0.00,CLR,,0.04,WeatherDisplay:10.37,2013-05-11 21:56:00,
2013-05-11 18:01:00,64.0,37.9,26.95,ESE,102,0.0,0.0,38,0.00,CLR,,0.04,WeatherDisplay:10.37,2013-05-11 22:01:00,
2013-05-11 18:06:00,64.0,38.6,26.95,SSW,195,0.0,0.0,39,0.00,CLR,,0.04,WeatherDisplay:10.37,2013-05-11 22:06:00,
2013-05-11 18:11:00,63.9,39.7,26.95,NNW,345,0.0,0.0,41,0.00,CLR,,0.04,WeatherDisplay:10.37,2013-05-11 22:11:00,
2013-05-11 18:16:00,63.9,40.3,26.95,SW,234,0.0,0.0,42,0.00,CLR,,0.04,WeatherDisplay:10.37,2013-05-11 22:16:00,
2013-05-11 18:21:00,63.9,40.9,26.95,East,91,0.0,0.0,43,0.00,CLR,,0.04,WeatherDisplay:10.37,2013-05-11 22:21:00,
2013-05-11 18:26:00,63.9,41.5,26.95,East,91,0.0,0.0,44,0.00,CLR,,0.04,WeatherDisplay:10.37,2013-05-11 22:26:00,
2013-05-11 18:31:00,64.0,41.7,26.95,East,91,2.7,0.0,44,0.00,CLR,,0.04,WeatherDisplay:10.37,2013-05-11 22:31:00,
2013-05-11 18:36:00,63.9,41.5,26.95,East,91,0.0,0.0,44,0.00,CLR,,0.04,WeatherDisplay:10.37,2013-05-11 22:36:00,
2013-05-11 18:41:00,63.9,41.5,26.95,East,91,0.0,0.0,44,0.00,CLR,,0.04,WeatherDisplay:10.37,2013-05-11 22:41:00,
2013-05-11 18:46:00,63.9,41.5,26.95,East,91,0.0,0.0,44,0.00,CLR,,0.04,WeatherDisplay:10.37,2013-05-11 22:46:00,
2013-05-11 18:51:00,63.7,41.3,26.95,East,91,0.0,0.0,44,0.00,CLR,,0.04,WeatherDisplay:10.37,2013-05-11 22:51:00,
2013-05-11 18:56:00,63.7,41.3,26.95,East,91,0.0,0.0,44,0.00,CLR,,0.04,WeatherDisplay:10.37,2013-05-11 22:56:00,
2013-05-11 19:01:00,63.7,42.5,26.95,East,91,0.0,0.0,46,0.00,CLR,,0.04,WeatherDisplay:10.37,2013-05-11 23:01:00,
2013-05-11 19:06:00,63.5,42.3,26.95,East,91,0.0,0.0,46,0.00,CLR,,0.04,WeatherDisplay:10.37,2013-05-11 23:06:00,
2013-05-11 19:11:00,63.5,42.3,26.95,East,91,0.0,0.0,46,0.00,CLR,,0.04,WeatherDisplay:10.37,2013-05-11 23:11:00,
2013-05-11 19:16:00,63.5,42.3,26.95,East,91,0.0,0.0,46,0.00,CLR,,0.04,WeatherDisplay:10.37,2013-05-11 23:16:00,
2013-05-11 19:21:00,63.5,42.3,26.95,East,91,0.0,0.0,46,0.00,CLR,,0.04,WeatherDisplay:10.37,2013-05-11 23:21:00,
2013-05-11 19:26:00,63.7,43.1,26.95,ENE,74,0.0,0.0,47,0.00,CLR,,0.04,WeatherDisplay:10.37,2013-05-11 23:26:00,
2013-05-11 19:31:00,63.9,43.2,26.95,South,169,3.5,0.0,47,0.00,CLR,,0.04,WeatherDisplay:10.37,2013-05-11 23:31:00,
2013-05-11 19:36:00,63.7,43.1,26.95,WSW,246,0.0,0.0,47,0.00,CLR,,0.04,WeatherDisplay:10.37,2013-05-11 23:36:00,
2013-05-11 19:41:00,63.7,43.6,26.95,SSE,147,2.3,0.0,48,0.04,RA,,0.08,WeatherDisplay:10.37,2013-05-11 23:41:00,
2013-05-11 19:46:00,63.9,44.3,26.95,South,186,0.0,0.0,49,0.04,RA,,0.08,WeatherDisplay:10.37,2013-05-11 23:46:00,
2013-05-11 19:51:00,63.7,44.2,26.95,North,2,2.3,0.0,49,0.08,RA,,0.12,WeatherDisplay:10.37,2013-05-11 23:51:00,
2013-05-11 19:56:00,63.9,44.9,26.95,WSW,249,2.3,0.0,50,0.08,RA,,0.12,WeatherDisplay:10.37,2013-05-11 23:56:00,
2013-05-11 20:01:00,63.9,45.4,26.95,WSW,249,0.0,0.0,51,0.08,CLR,,0.12,WeatherDisplay:10.37,2013-05-12 00:01:00,
2013-05-11 20:06:00,63.9,45.4,26.95,NNE,26,0.0,0.0,51,0.08,CLR,,0.12,WeatherDisplay:10.37,2013-05-12 00:06:00,
2013-05-11 20:11:00,63.9,45.4,26.95,NNW,348,2.3,0.0,51,0.08,CLR,,0.12,WeatherDisplay:10.37,2013-05-12 00:11:00,
2013-05-11 20:16:00,63.9,45.9,26.95,NNW,348,0.0,0.0,52,0.08,CLR,,0.12,WeatherDisplay:10.37,2013-05-12 00:16:00,
2013-05-11 20:21:00,64.0,46.1,26.95,NNW,348,0.0,0.0,52,0.08,CLR,,0.12,WeatherDisplay:10.37,2013-05-12 00:21:00,
2013-05-11 20:26:00,64.0,46.1,26.95,SE,127,0.0,0.0,52,0.08,CLR,,0.12,WeatherDisplay:10.37,2013-05-12 00:26:00,
2013-05-11 20:31:00,64.0,46.6,26.95,SE,127,0.0,0.0,53,0.08,CLR,,0.12,WeatherDisplay:10.37,2013-05-12 00:31:00,
2013-05-11 20:36:00,64.0,46.6,26.95,SE,127,0.0,0.0,53,0.08,CLR,,0.12,WeatherDisplay:10.37,2013-05-12 00:36:00,
2013-05-11 20:41:00,64.0,46.6,26.95,SE,127,0.0,0.0,53,0.04,CLR,,0.12,WeatherDisplay:10.37,2013-05-12 00:41:00,
2013-05-11 20:46:00,64.0,46.6,26.95,ENE,77,2.3,0.0,53,0.04,CLR,,0.12,WeatherDisplay:10.37,2013-05-12 00:46:00,
2013-05-11 20:51:00,64.0,47.1,26.95,ESE,108,0.0,0.0,54,0.00,CLR,,0.12,WeatherDisplay:10.37,2013-05-12 00:51:00,
2013-05-11 20:56:00,64.0,47.1,26.95,SE,129,0.0,0.0,54,0.00,CLR,,0.12,WeatherDisplay:10.37,2013-05-12 00:56:00,
2013-05-11 21:01:00,63.9,46.9,26.95,SE,129,0.0,0.0,54,0.00,CLR,,0.12,WeatherDisplay:10.37,2013-05-12 01:01:00,
2013-05-11 21:06:00,63.9,46.9,26.95,SE,129,0.0,0.0,54,0.00,CLR,,0.12,WeatherDisplay:10.37,2013-05-12 01:06:00,
2013-05-11 21:11:00,63.5,46.6,26.95,SE,129,0.0,0.0,54,0.00,CLR,,0.12,WeatherDisplay:10.37,2013-05-12 01:11:00,
2013-05-11 21:16:00,63.5,47.0,26.95,SE,129,0.0,0.0,55,0.00,CLR,,0.12,WeatherDisplay:10.37,2013-05-12 01:16:00,
2013-05-11 21:21:00,63.5,47.5,26.95,SE,129,0.0,0.0,56,0.00,CLR,,0.12,WeatherDisplay:10.37,2013-05-12 01:21:00,
2013-05-11 21:26:00,63.5,48.0,26.95,SE,129,0.0,0.0,57,0.00,CLR,,0.12,WeatherDisplay:10.37,2013-05-12 01:26:00,
2013-05-11 21:31:00,63.5,48.9,26.95,SE,129,0.0,0.0,59,0.00,CLR,,0.12,WeatherDisplay:10.37,2013-05-12 01:31:00,
2013-05-11 21:36:00,63.5,49.4,26.95,SE,125,0.0,0.0,60,0.00,CLR,,0.12,WeatherDisplay:10.37,2013-05-12 01:36:00,
2013-05-11 21:41:00,63.5,49.4,26.95,SE,125,0.0,0.0,60,0.00,CLR,,0.12,WeatherDisplay:10.37,2013-05-12 01:41:00,
2013-05-11 21:46:00,63.3,50.1,26.95,SE,125,0.0,0.0,62,0.00,CLR,,0.12,WeatherDisplay:10.37,2013-05-12 01:46:00,
2013-05-11 21:51:00,63.3,50.9,26.95,SE,125,0.0,0.0,64,0.00,CLR,,0.12,WeatherDisplay:10.37,2013-05-12 01:51:00,
2013-05-11 21:56:00,63.3,50.9,26.95,SE,125,0.0,0.0,64,0.00,CLR,,0.12,WeatherDisplay:10.37,2013-05-12 01:56:00,
2013-05-11 22:01:00,63.3,51.8,26.95,SE,125,0.0,0.0,66,0.00,CLR,,0.12,WeatherDisplay:10.37,2013-05-12 02:01:00,
2013-05-11 22:06:00,63.3,51.8,26.95,SE,125,0.0,0.0,66,0.00,CLR,,0.12,WeatherDisplay:10.37,2013-05-12 02:06:00,
2013-05-11 22:11:00,63.5,51.9,26.95,SE,125,0.0,0.0,66,0.00,CLR,,0.12,WeatherDisplay:10.37,2013-05-12 02:11:00,
2013-05-11 22:16:00,63.5,51.9,26.95,SE,125,0.0,0.0,66,0.00,CLR,,0.12,WeatherDisplay:10.37,2013-05-12 02:16:00,
2013-05-11 22:21:00,63.5,51.9,26.95,SE,125,0.0,0.0,66,0.00,CLR,,0.12,WeatherDisplay:10.37,2013-05-12 02:21:00,
2013-05-11 22:26:00,63.5,51.5,26.95,SE,125,0.0,0.0,65,0.00,CLR,,0.12,WeatherDisplay:10.37,2013-05-12 02:26:00,
2013-05-11 22:31:00,63.5,51.5,26.95,SE,125,0.0,0.0,65,0.00,CLR,,0.12,WeatherDisplay:10.37,2013-05-12 02:31:00,
2013-05-11 22:36:00,63.5,51.9,26.95,SE,125,0.0,0.0,66,0.00,CLR,,0.12,WeatherDisplay:10.37,2013-05-12 02:36:00,
2013-05-11 22:41:00,63.7,52.9,26.95,SE,125,0.0,0.0,68,0.00,CLR,,0.12,WeatherDisplay:10.37,2013-05-12 02:41:00,
2013-05-11 22:46:00,63.9,53.5,26.95,SE,125,0.0,0.0,69,0.00,CLR,,0.12,WeatherDisplay:10.37,2013-05-12 02:46:00,
2013-05-11 22:51:00,63.9,53.9,26.95,SE,125,0.0,0.0,70,0.00,CLR,,0.12,WeatherDisplay:10.37,2013-05-12 02:51:00,
2013-05-11 22:56:00,63.9,54.7,26.95,SW,218,0.0,0.0,72,0.00,CLR,,0.12,WeatherDisplay:10.37,2013-05-12 02:56:00,
2013-05-11 23:01:00,63.9,54.3,26.95,NE,37,0.0,0.0,71,0.00,CLR,,0.12,WeatherDisplay:10.37,2013-05-12 03:01:00,
2013-05-11 23:06:00,63.9,54.3,26.95,NE,37,0.0,0.0,71,0.00,CLR,,0.12,WeatherDisplay:10.37,2013-05-12 03:06:00,
2013-05-11 23:11:00,63.9,54.3,26.95,ESE,120,0.0,0.0,71,0.00,CLR,,0.12,WeatherDisplay:10.37,2013-05-12 03:11:00,
2013-05-11 23:16:00,63.9,54.3,26.95,ESE,120,0.0,0.0,71,0.00,CLR,,0.12,WeatherDisplay:10.37,2013-05-12 03:16:00,
2013-05-11 23:21:00,63.7,52.9,26.95,ESE,120,0.0,0.0,68,0.00,CLR,,0.12,WeatherDisplay:10.37,2013-05-12 03:21:00,
2013-05-11 23:26:00,63.7,53.3,26.95,ESE,120,0.0,0.0,69,0.00,CLR,,0.12,WeatherDisplay:10.37,2013-05-12 03:26:00,
2013-05-11 23:31:00,63.7,54.1,26.95,ESE,120,0.0,0.0,71,0.00,CLR,,0.12,WeatherDisplay:10.37,2013-05-12 03:31:00,
2013-05-11 23:36:00,63.5,54.7,26.95,ESE,120,0.0,0.0,73,0.00,CLR,,0.12,WeatherDisplay:10.37,2013-05-12 03:36:00,
2013-05-11 23:41:00,63.5,55.1,26.95,ESE,120,0.0,0.0,74,0.00,CLR,,0.12,WeatherDisplay:10.37,2013-05-12 03:41:00,
2013-05-11 23:46:00,63.5,55.1,26.95,ESE,120,0.0,0.0,74,0.00,CLR,,0.12,WeatherDisplay:10.37,2013-05-12 03:46:00,
2013-05-11 23:51:00,63.5,55.1,26.95,ESE,120,0.0,0.0,74,0.00,CLR,,0.12,WeatherDisplay:10.37,2013-05-12 03:51:00,
2013-05-11 23:56:00,63.3,55.3,26.95,ESE,120,0.0,0.0,75,0.00,CLR,,0.12,WeatherDisplay:10.37,2013-05-12 03:56:00,